Theta_e
313 313 313 313 314 314 314 314 314 314 313 313 314 314 315 316 317 317 317 318 318 319 319 319 320 321 323 324 324 325 326 327 327 328 329 328 328 327 327 327 328 329 329 329 328 328 327 327 327 326 327 327 327 328 328 329 329 329 329 329 328 327 328 330 330 329 328 327 329 329 329 330 330 329 329 329 329 328 328 328 327 324 324 322 316
313 313 313 313 313 313 313 313 313 313 313 313 313 314 315 315 316 316 316 317 317 318 318 318 318 319 320 321 322 322 323 324 325 326 327 327 327 327 326 327 327 327 327 328 328 328 329 328 327 326 326 327 327 328 329 329 330 330 330 329 329 329 329 330 330 329 328 328 329 329 330 330 330 329 329 330 329 328 328 328 327 325 323 324 322
312 312 312 312 312 312 312 312 312 313 313 313 314 314 315 315 315 315 316 316 316 317 317 318 318 318 319 319 320 321 322 323 324 325 325 326 326 326 326 326 326 326 326 326 327 327 328 329 328 328 328 327 327 327 328 329 329 329 330 330 329 329 329 329 330 329 328 328 329 329 329 330 330 329 329 329 329 328 328 328 326 325 324 323 324
311 311 311 311 311 311 311 311 311 311 311 312 313 314 315 315 315 315 315 315 316 316 316 317 317 318 318 318 318 319 320 321 321 322 322 323 324 324 325 325 325 325 326 326 327 327 327 327 328 328 329 328 327 328 328 329 329 329 329 329 330 330 329 329 329 329 328 329 329 329 329 330 330 330 329 329 329 328 328 328 326 325 324 323 324
310 309 309 309 310 309 309 309 309 309 309 310 311 313 314 314 314 314 314 314 315 315 315 316 316 317 317 317 318 318 318 318 318 318 319 320 321 322 322 323 324 325 326 326 327 327 327 327 327 328 328 329 328 328 328 328 328 329 329 329 330 330 330 329 329 329 329 329 330 329 329 329 329 330 330 329 329 329 328 328 327 325 324 323 324
309 308 308 308 308 308 308 308 308 308 308 309 309 310 311 313 313 314 314 314 314 314 314 315 315 316 316 316 317 317 317 317 317 317 317 318 318 318 319 320 321 323 324 325 326 326 326 326 327 327 328 329 329 328 327 327 327 328 329 329 329 330 331 330 329 329 329 328 329 330 329 328 329 329 329 329 328 329 328 327 326 325 324 323 324
308 307 307 307 307 307 306 306 306 307 307 307 308 308 309 310 312 312 313 313 313 313 313 314 314 315 315 316 316 316 316 316 316 316 316 316 317 317 317 318 319 319 321 322 323 324 325 325 327 327 327 328 328 328 328 328 327 327 328 329 329 330 330 331 330 330 329 328 329 330 329 328 328 328 329 328 328 328 328 327 326 324 323 323 324
307 306 306 306 306 306 306 306 305 305 305 306 306 306 307 308 309 310 311 312 312 312 312 312 312 313 313 313 314 314 314 314 315 315 315 315 315 316 316 316 317 317 318 319 320 321 323 325 326 326 327 327 327 328 328 328 328 328 328 329 329 329 330 331 331 331 330 329 329 330 329 328 328 328 328 328 326 326 326 327 326 325 324 323 323
306 306 305 305 305 305 305 305 305 304 304 305 305 305 306 307 308 308 309 309 310 310 310 310 311 311 311 311 311 312 312 312 313 313 313 314 314 315 315 316 316 317 317 318 318 319 320 322 323 324 325 326 327 327 327 328 328 329 328 328 328 329 329 330 330 330 330 329 329 330 330 329 328 328 327 327 327 326 325 325 325 325 326 325 323
305 305 305 304 304 305 304 304 304 304 304 304 304 304 304 305 306 307 307 307 308 309 309 309 310 310 310 310 310 310 311 311 311 311 312 313 314 315 315 316 317 317 318 318 318 319 319 319 320 321 323 325 326 327 327 327 328 328 328 328 328 329 329 329 329 329 329 329 329 329 329 329 328 328 328 328 328 327 326 325 324 324 325 324 323
304 304 304 304 304 304 304 303 303 303 303 303 303 303 303 303 304 305 306 306 307 307 308 308 308 308 309 309 309 309 309 309 309 310 311 312 313 314 315 316 317 317 317 318 318 319 319 319 319 320 322 324 325 326 326 327 327 328 328 328 328 328 329 329 329 329 329 328 329 328 328 329 329 329 328 328 328 327 327 326 325 324 325 324 323
302 302 303 303 303 302 301 301 301 301 302 302 302 302 302 302 303 303 304 305 306 306 306 306 306 307 307 307 307 307 307 308 308 309 310 311 312 313 314 315 316 316 317 316 317 318 319 319 319 319 320 322 323 325 326 326 327 327 327 328 328 328 329 329 329 329 329 329 329 329 328 328 329 329 328 327 327 327 327 327 326 325 325 325 324
301 302 302 301 300 299 299 300 300 301 301 302 302 302 302 302 302 302 303 303 303 303 304 304 304 304 305 305 305 306 306 306 307 307 308 310 311 312 313 314 315 315 315 315 316 317 317 318 319 319 320 320 322 324 325 326 326 327 327 328 328 329 329 329 329 328 328 329 329 328 328 328 328 329 328 327 327 327 327 327 327 326 326 326 324
301 301 300 299 298 298 299 299 299 300 300 301 301 302 302 302 301 301 301 301 301 302 302 302 303 303 303 304 304 304 305 305 305 306 307 308 310 311 312 313 314 314 314 314 315 315 317 317 318 319 320 320 321 322 324 325 325 326 327 327 328 329 329 328 328 328 329 329 329 329 329 329 328 328 328 327 327 327 327 327 327 326 326 325 324
300 300 299 299 298 298 298 298 298 299 299 299 300 300 301 301 301 300 300 300 300 301 301 301 301 302 302 303 303 303 303 304 304 305 305 307 309 310 311 312 313 313 312 313 314 314 316 317 317 318 319 320 320 321 322 323 325 325 326 327 327 328 328 328 327 328 329 329 329 330 329 329 329 328 328 328 327 327 327 327 327 327 325 324 323
300 300 300 299 299 299 299 299 298 298 298 298 299 299 299 299 300 300 300 300 300 300 299 299 300 300 300 300 301 301 302 302 303 303 304 305 307 309 310 310 311 312 311 312 313 314 315 316 318 318 319 320 320 321 321 322 324 325 326 326 327 327 327 328 327 328 328 328 329 329 329 329 328 328 327 327 327 327 327 327 326 325 323 321 321
300 300 300 300 299 299 299 299 298 298 298 298 298 298 298 299 299 299 299 299 299 299 299 299 299 299 299 299 299 299 299 300 301 301 302 303 305 306 308 309 310 310 310 311 312 314 315 316 317 319 320 320 321 321 322 322 323 325 325 326 326 327 327 327 327 328 328 328 328 328 329 328 328 327 327 327 327 326 326 326 325 323 322 320 319
301 301 301 301 300 300 300 299 299 298 298 298 298 298 298 298 298 297 297 297 297 297 297 297 298 298 299 298 298 298 298 298 299 299 300 302 303 304 306 307 308 309 310 310 311 313 314 315 316 318 319 320 321 321 322 323 323 324 325 325 326 326 326 326 327 328 328 328 328 328 328 328 327 327 326 326 326 326 326 326 325 323 322 321 320
301 301 301 301 300 300 300 300 300 299 298 298 298 298 298 297 297 296 296 295 295 295 295 295 296 297 298 298 298 298 298 297 297 298 298 300 301 302 303 305 306 308 308 309 310 312 313 314 316 317 318 320 321 321 322 323 324 324 324 325 325 325 326 326 326 327 327 328 328 328 328 327 326 326 326 325 326 326 326 326 325 323 321 321 321
301 301 301 301 300 300 300 300 300 299 299 298 298 298 298 298 298 297 296 296 295 295 294 294 295 296 297 297 298 298 297 297 296 297 297 298 299 300 302 303 304 306 306 307 308 310 310 312 314 316 317 319 321 322 322 323 324 324 324 325 325 325 325 326 326 327 328 328 328 327 327 326 326 326 326 326 326 325 325 324 324 323 322 321 321
300 300 300 300 300 299 300 300 299 299 299 299 298 298 298 298 298 298 297 297 296 295 294 294 295 295 295 296 296 297 297 296 296 296 297 297 298 299 300 301 302 303 304 305 306 307 308 310 312 314 317 318 319 321 322 323 324 325 325 325 325 325 325 326 326 327 327 328 327 326 326 325 326 325 325 325 325 325 324 324 324 324 323 322 321
300 300 299 299 299 299 299 299 299 299 298 298 298 298 298 298 298 298 298 298 297 296 295 295 294 294 295 295 296 296 296 296 296 296 296 297 297 298 299 300 300 301 302 303 304 305 307 308 309 311 315 317 318 319 320 321 322 322 322 323 324 324 324 324 325 325 326 326 326 326 325 325 325 325 325 325 325 324 324 323 322 322 321 320 320
299 299 299 299 299 299 299 298 298 298 298 298 298 298 298 298 297 297 297 298 297 297 296 295 295 294 295 295 295 295 296 296 296 296 296 296 297 297 298 299 300 300 301 302 303 304 305 306 308 310 313 316 318 317 317 318 319 319 320 321 321 320 319 320 322 323 323 324 324 324 324 323 324 324 324 324 323 323 322 321 320 320 319 319 319
299 299 299 299 299 298 298 298 298 298 298 298 298 297 297 297 297 297 297 297 297 297 296 295 295 295 295 295 294 295 295 296 296 296 296 296 296 297 297 298 299 300 300 301 302 303 304 305 306 309 311 313 315 316 315 315 316 317 318 318 318 318 318 319 320 321 320 320 321 321 320 320 321 321 321 322 321 321 321 320 319 319 319 319 318
300 299 299 300 299 298 298 298 298 298 298 298 298 297 297 297 297 297 297 297 297 297 296 296 295 295 295 295 294 295 295 296 296 295 295 296 296 296 297 297 298 299 300 300 300 302 303 303 305 307 309 310 312 315 315 314 314 315 316 315 315 316 317 318 319 319 318 318 319 319 318 318 319 319 319 319 320 320 320 320 319 319 319 318 318
300 299 299 300 299 299 298 298 298 298 298 298 298 297 297 297 297 297 297 297 297 297 297 296 295 295 295 295 295 294 295 295 296 295 295 295 295 296 296 296 297 297 298 299 300 301 302 302 303 305 307 308 310 311 311 312 313 314 314 313 313 313 314 314 315 316 316 316 316 316 316 316 317 317 317 317 317 318 318 318 318 318 317 317 317
299 299 299 299 299 298 298 298 298 298 298 298 298 297 297 297 297 297 297 297 297 297 297 296 295 295 295 295 295 294 294 295 295 296 295 295 295 295 296 296 296 297 297 298 300 300 301 302 302 303 304 306 308 308 308 309 310 311 311 311 311 311 312 312 313 313 313 313 313 313 313 313 313 314 314 314 315 316 316 316 317 316 316 317 317
298 298 298 298 298 298 298 298 297 297 297 297 297 297 297 297 297 297 297 297 297 297 297 296 295 295 295 295 295 295 294 294 295 295 295 295 295 295 295 295 296 296 296 297 298 299 300 301 302 302 303 304 305 305 306 307 307 307 308 308 308 308 309 310 310 310 310 310 310 310 309 309 310 311 312 313 313 313 313 314 315 315 314 315 315
298 298 298 298 298 298 298 298 297 297 297 297 297 297 297 297 297 297 297 297 297 297 297 296 295 295 295 295 295 295 294 294 295 295 295 295 295 295 295 295 295 295 296 296 297 298 299 300 300 301 301 301 302 302 303 303 303 304 304 305 305 305 305 305 305 305 304 305 305 304 304 304 305 306 307 308 309 309 310 311 312 311 312 313 311
298 298 298 298 298 298 298 298 298 297 297 297 297 297 297 296 296 296 296 297 297 297 297 297 296 295 295 295 295 295 294 294 295 295 294 295 295 295 295 295 295 295 295 296 296 297 297 297 297 298 298 299 300 300 301 301 302 302 302 302 303 302 302 302 302 301 301 301 301 301 301 301 301 301 301 302 304 305 305 305 305 306 307 308 307
298 298 298 298 298 297 297 297 297 297 297 297 297 296 296 296 296 296 296 296 297 297 297 297 296 295 295 295 295 294 294 293 294 294 294 294 295 295 295 295 295 295 295 296 296 296 296 296 296 296 296 297 298 299 299 300 300 301 301 301 301 301 301 301 301 301 301 301 301 301 301 300 300 300 300 300 300 301 300 300 301 302 303 303 303
299 298 298 298 298 298 297 297 297 297 297 297 297 296 296 296 296 296 296 296 296 297 297 297 296 295 295 295 295 294 294 293 293 293 293 294 294 295 295 295 295 295 295 295 295 295 295 295 296 296 296 296 297 297 298 298 299 299 300 300 300 300 300 300 300 301 301 301 301 301 301 301 300 300 300 300 300 300 300 300 300 301 301 301 301
299 299 298 298 298 298 297 297 297 297 297 297 297 297 296 296 296 296 296 296 296 296 297 297 296 296 295 295 295 294 294 293 293 293 293 293 293 294 295 295 295 295 295 295 295 295 294 295 295 295 295 295 296 296 296 297 297 297 298 298 298 298 299 300 300 300 300 300 300 300 301 301 301 300 300 300 300 300 300 300 300 300 300 300 300
298 299 298 298 298 298 298 297 297 297 297 297 297 297 296 297 297 296 296 296 296 297 297 297 296 296 296 295 295 295 294 293 293 292 292 293 293 293 294 295 295 295 295 295 295 294 294 294 294 294 294 294 295 295 295 296 296 296 297 297 297 298 298 299 299 299 299 299 299 299 300 300 301 301 300 299 300 300 299 299 300 300 299 299 299
298 298 298 298 298 298 298 297 297 297 297 297 297 297 297 297 297 296 296 296 296 297 297 297 297 296 296 295 295 295 294 294 293 292 292 292 292 293 293 294 294 294 294 294 294 293 293 293 293 293 293 293 294 294 294 295 295 296 296 296 297 297 298 298 298 298 298 298 298 298 299 299 300 300 300 300 300 300 299 299 299 299 299 299 299
297 298 298 298 298 298 298 298 297 297 296 297 297 297 297 297 296 296 296 296 296 296 297 297 297 296 296 296 295 295 295 294 294 293 292 292 292 292 293 293 293 293 293 293 293 293 293 292 292 292 292 293 293 293 293 294 294 295 295 295 296 296 297 297 297 298 298 298 298 298 298 298 298 299 299 299 300 300 299 299 299 299 298 298 298
297 297 298 298 298 298 298 298 297 296 296 296 296 297 297 297 296 296 296 296 296 296 296 297 296 296 296 296 296 295 295 294 294 293 292 291 291 292 292 292 292 292 292 293 293 293 292 292 292 292 292 292 292 293 293 293 294 294 294 295 295 295 295 296 296 296 297 297 297 297 297 297 297 298 298 298 298 298 298 298 298 298 298 298 298
297 297 298 298 298 298 298 297 296 296 296 296 297 297 297 297 296 296 296 296 296 296 296 296 296 296 296 296 296 295 295 295 294 294 293 292 291 291 292 292 292 292 292 293 293 293 292 292 292 292 292 292 292 292 293 293 293 294 294 294 294 294 295 295 295 295 295 295 296 296 297 297 297 297 297 297 297 298 298 298 298 298 298 298 298
297 297 297 297 297 298 297 296 296 296 296 296 297 297 297 297 296 296 296 296 296 296 296 296 296 296 296 296 296 296 295 295 295 294 294 293 292 291 291 292 292 292 292 293 293 293 293 292 292 292 292 292 292 292 292 293 293 293 293 294 294 294 294 294 294 294 294 295 295 295 296 296 296 297 297 297 297 297 298 298 298 298 297 297 297
297 297 297 297 297 297 297 296 296 296 296 297 296 296 297 297 296 296 296 296 296 296 296 296 296 296 296 296 296 296 296 296 295 294 294 293 293 292 291 292 292 292 292 292 292 292 292 292 292 292 292 292 292 292 292 292 292 293 293 293 294 294 293 293 293 293 293 294 294 295 295 295 295 296 296 296 296 296 297 297 297 297 296 296 295
297 297 297 297 298 297 297 296 296 296 296 296 296 296 296 296 296 296 296 296 296 296 296 296 296 296 296 296 296 296 296 296 295 295 294 294 293 292 292 292 292 292 292 292 292 292 292 292 292 292 293 292 292 292 292 291 291 292 292 293 293 293 293 293 293 293 293 293 293 293 294 294 295 295 295 295 295 295 296 296 296 296 295 295 295
297 297 297 298 298 297 296 296 296 296 296 296 296 295 295 296 296 296 296 296 296 296 296 296 296 296 295 295 296 296 296 296 295 295 294 294 294 293 292 291 291 292 292 292 292 292 291 292 292 292 293 293 292 292 292 292 291 291 291 292 292 293 293 293 293 293 293 292 292 293 293 293 294 294 294 294 294 294 295 295 295 295 295 295 295
297 297 297 297 297 297 296 296 296 296 296 296 295 295 295 295 296 296 296 296 296 296 296 296 296 295 295 295 295 296 296 296 295 295 295 294 294 294 292 291 291 291 291 292 292 292 291 292 292 292 292 292 292 292 292 292 292 292 291 291 291 292 292 292 293 293 293 293 292 292 292 292 293 293 293 293 293 294 294 294 294 294 295 295 295
297 297 296 296 297 297 296 296 296 296 296 296 295 295 295 295 296 296 296 296 296 296 296 296 295 295 295 295 295 295 295 295 295 295 295 295 294 294 293 292 291 291 292 292 292 292 292 292 291 291 291 291 292 292 292 292 292 292 292 292 291 291 292 292 292 292 292 292 292 292 292 292 292 292 292 293 293 293 293 293 293 294 294 295 295
296 297 296 296 296 296 296 296 296 296 296 296 296 295 295 295 295 295 295 296 296 296 296 296 295 296 295 295 295 295 295 294 295 295 295 295 294 294 294 293 292 292 292 292 292 291 291 290 290 289 289 289 291 291 292 292 292 292 292 292 291 291 291 292 292 292 292 292 292 292 292 292 292 292 292 292 292 293 293 293 293 293 294 294 294
296 297 296 296 295 296 296 296 296 295 296 296 296 295 295 295 295 295 295 295 296 296 296 296 296 296 295 295 295 295 295 294 294 295 295 295 295 294 294 294 293 292 291 291 291 291 290 290 289 289 289 288 289 290 291 291 291 291 291 290 290 290 290 291 292 292 292 292 292 292 292 292 292 292 291 291 292 292 292 292 292 293 293 293 293
297 297 297 296 296 296 296 296 296 296 295 296 296 295 294 295 295 295 295 295 295 295 295 296 296 295 295 295 295 295 295 294 294 295 295 295 295 295 294 294 294 293 291 291 291 291 291 290 289 289 289 289 289 289 289 290 290 290 290 289 289 289 289 290 291 292 292 292 292 292 292 292 292 292 292 291 291 291 291 291 291 291 292 292 292
297 297 297 296 296 296 296 296 296 296 296 296 296 296 295 295 295 295 295 295 295 295 295 295 295 295 295 295 295 295 295 294 294 294 295 295 295 295 294 294 294 293 292 291 292 292 291 291 290 290 289 289 289 289 289 289 289 289 289 289 288 288 287 289 290 291 292 292 291 292 292 292 292 292 292 292 292 291 291 291 291 291 291 291 292
297 297 297 297 296 296 296 296 296 296 296 296 296 296 295 295 295 295 295 295 295 294 294 295 295 295 295 295 294 294 295 295 294 294 294 295 295 295 294 294 294 294 292 292 292 292 292 292 291 290 290 289 289 289 289 289 289 289 289 289 289 288 287 287 289 290 291 292 291 291 291 292 292 291 291 292 292 292 291 291 291 291 291 291 291
298 297 297 297 297 297 297 297 296 296 296 296 296 296 295 295 295 295 295 295 295 295 294 294 294 294 294 294 294 294 294 294 294 294 294 294 294 295 294 295 294 294 293 293 292 292 292 292 292 291 290 290 290 289 289 289 289 289 288 288 289 289 288 287 287 288 290 291 291 292 291 291 291 292 292 291 291 291 292 291 291 291 291 291 291
298 297 297 297 297 297 297 297 296 296 296 296 296 295 295 295 295 295 295 295 295 295 294 294 294 294 293 293 293 293 294 294 294 294 294 294 294 294 294 295 294 294 293 293 293 293 293 293 292 291 291 291 290 290 290 290 290 289 289 289 288 288 288 288 288 288 288 289 290 291 291 291 291 291 291 291 291 291 291 291 292 292 291 291 291
Wind_Speed
12 12 11 10 9 9 8 7 7 6 6 6 7 7 7 8 7 7 6 5 6 8 10 12 13 13 14 14 15 15 15 15 14 14 15 15 15 16 17 16 16 16 17 18 19 20 20 20 21 21 21 22 23 25 26 26 27 29 29 30 32 32 33 35 38 38 36 33 30 29 31 35 35 35 36 35 34 32 30 31 31 28 26 25 24
10 9 8 7 7 7 6 6 6 5 5 6 7 9 10 10 10 9 9 8 7 6 6 8 11 13 15 16 17 18 19 18 17 16 17 18 18 19 20 20 20 19 18 18 19 21 22 23 23 22 21 23 24 25 26 27 28 29 30 32 33 33 34 35 37 38 37 34 32 29 29 33 35 35 35 36 36 35 33 34 34 31 29 27 25
8 7 7 7 6 5 5 6 6 6 6 6 7 9 10 10 10 10 10 10 9 9 8 7 8 10 12 14 17 20 22 21 20 20 20 20 21 20 20 21 22 23 22 21 21 22 23 25 25 23 22 24 25 25 26 27 28 29 31 32 33 33 34 35 36 37 36 34 32 29 29 33 36 36 36 37 37 37 36 36 36 33 32 30 28
7 7 6 6 6 6 8 9 9 9 10 11 10 10 9 10 10 11 11 11 11 10 9 9 8 9 9 10 12 16 20 21 21 22 22 23 24 25 24 23 22 23 23 24 23 24 24 26 26 25 24 25 26 26 27 28 28 30 31 32 33 34 34 34 35 36 35 34 33 32 31 33 35 37 38 39 39 40 39 38 37 35 34 32 29
8 8 8 7 8 9 12 14 15 15 16 16 14 12 11 10 10 11 11 12 12 12 11 11 11 10 10 11 12 14 16 18 19 19 20 21 23 26 27 27 25 24 23 23 23 24 25 25 26 26 26 27 28 27 27 27 28 30 32 33 34 34 34 34 35 36 35 35 36 35 34 34 35 37 39 41 42 43 42 41 40 37 36 34 30
10 11 11 11 13 15 16 17 18 17 17 17 16 15 13 12 11 11 11 11 12 12 13 13 13 12 12 12 13 14 16 17 18 19 19 19 19 21 23 25 26 27 27 26 26 26 27 26 26 27 27 29 30 29 27 27 27 29 32 33 34 35 35 35 36 37 36 36 37 37 35 33 34 36 38 40 42 44 43 43 41 39 38 36 32
11 12 13 14 17 18 18 18 17 16 16 16 16 16 15 14 13 12 12 12 12 13 14 14 14 14 14 13 13 13 15 16 17 18 18 19 20 20 21 22 23 24 26 29 30 30 30 29 29 28 28 29 30 31 30 28 27 28 30 32 35 36 37 37 36 37 37 36 37 37 36 34 34 36 38 40 42 43 43 44 43 42 41 38 34
12 14 15 16 18 18 18 17 16 16 16 16 15 16 16 15 15 14 14 14 14 15 16 16 16 16 16 16 15 15 15 16 18 19 20 21 21 22 23 24 25 24 24 25 28 30 32 32 31 30 29 29 29 30 30 29 29 29 29 31 33 34 36 37 36 37 37 37 37 37 37 36 35 36 39 41 42 43 43 45 44 42 41 40 36
12 14 16 18 18 17 17 17 17 16 16 16 17 17 16 15 15 15 15 15 15 16 17 17 17 17 18 18 18 18 18 19 21 23 24 23 23 24 25 25 26 27 26 25 25 27 30 33 34 33 32 31 30 29 29 29 30 30 29 29 30 32 35 36 36 36 38 38 37 36 37 38 38 38 41 43 43 41 41 43 43 41 41 40 36
13 15 17 18 17 16 16 17 16 16 16 17 18 19 18 16 16 16 16 16 16 16 17 17 18 19 19 20 20 21 21 21 22 23 24 24 24 25 26 26 26 26 26 26 25 25 26 28 32 34 33 32 31 30 29 29 29 29 29 29 29 32 35 37 36 37 38 38 38 37 37 39 40 41 43 44 42 39 40 42 42 42 42 40 37
15 16 16 16 16 16 16 16 16 16 16 17 18 19 19 19 19 19 17 16 17 17 17 18 19 20 21 21 22 22 22 23 23 22 22 23 24 25 26 27 26 25 24 23 24 24 24 24 26 30 33 33 31 31 30 30 29 29 29 30 30 32 34 36 36 36 37 37 38 39 40 41 41 41 42 44 43 42 41 41 43 45 45 43 41
20 20 18 18 18 19 20 20 19 18 17 17 17 17 18 19 21 21 20 18 18 18 19 20 21 21 22 22 23 24 24 24 25 24 23 22 23 24 25 27 26 25 24 23 23 23 24 23 22 25 30 32 31 31 31 31 31 30 31 31 32 33 34 35 37 37 37 36 38 40 41 41 41 41 41 43 44 43 42 42 45 47 47 46 44
26 25 23 23 24 25 26 26 26 24 22 21 20 19 19 19 20 22 22 21 20 21 22 23 23 24 24 24 24 25 25 26 26 26 25 23 23 23 23 24 25 25 24 23 22 22 23 24 23 23 26 29 29 29 30 31 31 31 30 30 30 32 33 35 37 37 37 37 38 41 41 40 40 41 40 40 42 43 44 46 47 47 48 47 44
27 28 28 28 29 30 30 30 30 29 28 27 27 25 24 22 22 22 24 24 24 24 25 24 24 24 25 25 25 25 26 26 27 27 26 25 23 22 22 22 24 25 25 24 23 22 22 23 24 24 25 26 27 28 29 30 31 31 31 30 29 30 32 34 35 37 38 39 39 40 40 39 38 37 36 38 42 44 44 45 46 48 49 47 43
28 29 29 30 30 30 31 32 32 32 31 31 31 31 30 29 27 26 26 25 25 25 25 25 25 25 24 24 25 25 26 26 27 27 26 26 24 23 22 22 23 25 27 27 26 25 24 24 24 25 26 27 27 28 28 29 30 32 33 32 31 30 32 34 35 36 39 41 40 39 38 37 34 32 33 37 42 43 41 42 44 47 49 47 44
28 29 29 28 28 29 31 33 33 32 33 33 33 34 33 32 30 28 27 26 26 26 26 26 26 26 26 26 26 26 26 26 27 27 27 26 25 24 24 23 23 25 27 28 27 27 28 28 28 26 26 28 29 29 29 29 29 30 32 33 32 31 32 34 35 35 37 39 39 38 37 33 29 27 29 33 38 41 40 41 44 47 49 47 45
26 27 28 27 27 28 30 32 33 32 32 33 33 33 33 32 30 29 29 28 28 28 28 27 28 28 28 29 29 29 29 28 29 28 28 28 27 25 25 25 24 24 26 28 27 27 29 30 29 29 27 25 29 30 30 30 30 30 31 32 32 32 33 34 35 35 35 35 35 35 34 32 28 27 29 31 35 38 40 42 46 48 48 46 44
23 24 26 26 26 27 28 30 31 31 31 31 32 32 32 31 31 30 30 30 30 29 28 27 27 27 28 29 30 30 31 32 31 31 30 29 28 27 26 25 25 24 26 28 27 27 29 28 26 30 33 26 24 30 30 29 31 31 31 32 32 32 33 32 32 33 32 32 34 34 34 31 29 29 30 30 33 36 38 42 46 47 47 48 46
22 22 23 24 26 26 26 27 29 30 30 30 30 30 31 30 30 30 30 31 31 31 30 29 27 27 27 27 28 29 31 33 33 33 32 31 30 29 28 27 26 26 27 29 28 27 28 27 25 30 37 32 21 23 27 28 29 29 29 30 31 31 31 30 30 30 30 32 33 33 33 31 30 30 29 28 30 33 35 39 44 45 46 47 46
22 22 22 23 24 25 25 25 27 28 28 29 29 29 29 29 29 29 29 31 32 33 33 32 30 29 27 26 27 29 31 32 33 33 33 33 32 31 29 28 28 27 28 30 30 30 30 30 28 28 33 34 26 16 21 25 24 24 25 26 28 29 28 28 30 30 31 32 33 33 33 32 30 29 28 28 29 30 31 33 38 42 44 46 46
22 23 23 23 24 25 25 25 26 27 27 28 28 28 29 28 29 29 29 30 32 34 35 34 33 32 30 28 28 29 30 31 32 33 33 33 32 31 30 29 29 28 29 30 31 32 34 33 30 26 25 28 28 17 10 18 19 19 23 26 27 26 26 29 31 31 31 32 33 33 32 31 29 28 28 28 28 28 28 29 33 38 42 43 44
23 24 25 25 25 26 26 26 27 27 27 27 28 28 29 29 29 29 29 31 32 34 36 36 36 35 33 32 31 30 29 30 31 32 32 33 32 31 28 27 28 28 29 30 31 32 33 33 30 25 21 19 21 21 13 6 12 17 23 27 27 26 28 30 30 29 29 30 31 29 28 27 27 27 27 27 27 27 27 27 30 34 37 38 40
24 24 24 25 25 25 26 26 28 28 28 29 29 29 29 28 28 29 30 31 32 34 37 38 38 37 36 36 35 33 31 30 30 32 33 33 33 32 29 26 25 26 28 30 30 30 31 31 28 24 19 15 16 19 19 13 4 5 10 14 16 18 21 25 26 27 27 28 27 26 24 22 23 25 26 27 28 28 27 27 29 33 34 33 35
22 23 22 21 23 24 24 25 27 27 28 29 29 29 29 28 28 29 30 31 32 34 37 39 39 38 37 38 38 36 34 32 32 33 34 34 35 34 32 29 25 24 25 27 27 27 28 29 27 24 20 15 12 11 11 12 11 7 4 5 6 8 10 13 16 19 18 17 18 18 17 15 14 15 18 20 22 24 24 25 27 30 31 31 33
18 20 19 18 19 21 22 23 25 26 26 27 28 29 29 28 28 29 30 31 32 33 36 38 38 37 37 38 39 37 35 35 35 35 35 36 36 36 35 34 31 28 26 26 24 23 24 25 24 22 20 17 12 9 9 9 8 7 6 6 7 8 7 9 12 13 11 10 10 12 12 11 9 8 9 9 11 14 16 19 22 24 27 30 32
14 16 16 16 17 18 19 21 22 23 23 24 26 27 27 27 28 28 29 30 31 33 35 38 38 36 36 37 39 38 36 36 36 37 37 37 37 37 36 36 35 33 30 27 23 21 20 21 20 18 17 16 13 11 13 12 10 8 7 7 8 9 9 10 11 12 11 10 10 11 13 12 9 8 7 7 8 10 12 16 21 22 24 29 31
14 15 16 16 16 16 17 19 20 20 21 21 23 24 25 26 26 27 27 29 31 32 34 36 37 36 35 36 38 38 36 35 36 36 37 37 37 36 36 36 36 34 32 29 25 21 18 16 17 16 15 13 11 9 10 12 12 11 9 8 9 10 10 10 11 13 14 13 10 11 14 14 13 12 11 11 12 14 15 17 21 22 24 27 30
15 16 16 16 16 15 16 17 19 19 19 19 20 21 23 24 25 25 26 28 29 31 32 34 36 35 34 35 37 38 37 35 34 35 36 36 35 34 34 34 34 34 32 29 25 22 17 14 14 17 18 17 15 13 13 15 16 15 14 12 11 11 11 11 12 14 16 16 16 17 19 20 19 19 18 18 19 20 21 21 23 26 27 28 29
14 14 13 13 13 13 14 15 17 17 17 18 18 18 20 23 24 24 25 26 28 28 30 32 34 33 33 33 35 37 36 33 31 31 32 32 32 31 31 31 31 31 30 27 25 23 22 21 21 22 22 22 22 21 21 21 22 23 22 20 19 18 16 15 16 18 19 20 21 22 22 22 22 22 23 23 23 23 23 23 25 28 29 29 32
12 11 12 13 12 12 12 13 14 15 17 17 16 16 18 21 23 23 24 25 27 27 28 30 32 33 32 32 32 34 33 29 27 28 29 29 28 27 26 27 28 28 27 26 26 27 28 29 29 28 27 26 25 23 22 21 22 23 24 24 24 24 24 23 22 21 21 22 23 23 23 23 23 23 24 26 26 25 24 24 24 25 27 30 32
10 10 11 13 14 13 12 11 11 13 15 17 17 16 17 20 21 22 23 24 26 26 26 28 30 32 31 31 31 33 33 29 27 27 27 26 25 24 24 24 26 28 27 27 28 30 30 30 30 30 28 27 26 25 23 21 20 19 19 19 20 21 22 23 22 22 22 23 23 23 23 23 23 23 24 25 25 24 22 22 23 24 26 29 30
9 9 8 10 13 14 12 10 10 11 13 15 16 16 16 18 20 22 23 23 25 26 26 27 29 31 31 30 31 34 35 33 29 26 25 26 25 23 22 22 24 25 27 28 31 31 30 29 29 29 28 26 25 24 23 22 22 20 18 18 18 17 18 18 17 18 19 20 21 21 21 22 23 24 23 22 21 20 20 20 23 26 28 28 28
7 7 8 8 10 12 12 9 9 11 12 13 14 14 15 16 18 21 22 22 23 25 26 27 28 30 30 30 31 33 35 35 30 25 24 25 25 23 21 21 22 24 26 29 31 31 30 29 28 27 26 25 24 22 22 21 21 20 20 19 18 18 17 14 13 14 15 15 16 18 19 20 21 21 20 18 17 17 18 18 19 21 22 22 22
7 7 7 7 8 10 10 9 10 12 12 12 12 12 13 14 16 19 21 21 22 23 25 26 27 28 29 29 30 32 34 35 33 28 24 23 24 24 21 20 21 23 26 29 30 29 29 28 27 26 25 24 23 22 22 21 20 19 19 19 17 17 17 16 15 16 15 14 14 15 15 14 13 12 11 11 12 15 17 19 18 18 18 18 18
7 8 6 6 7 8 8 8 11 13 12 11 11 11 12 14 15 17 20 22 21 22 23 24 26 27 27 28 29 30 32 34 34 32 28 25 24 24 22 22 23 25 27 28 28 27 27 27 26 25 25 24 23 23 22 21 20 19 18 17 16 15 15 16 17 18 18 18 18 18 16 14 12 10 9 11 13 14 16 18 18 18 17 17 17
8 8 6 5 6 6 6 7 11 13 12 11 10 9 11 14 13 15 18 21 21 21 20 22 24 25 25 26 27 28 30 32 33 33 32 28 25 24 25 27 28 28 28 28 26 25 25 24 24 23 23 22 22 22 21 21 20 19 19 18 16 15 15 15 15 15 16 17 18 19 19 18 17 15 15 16 17 18 18 19 18 16 15 14 15
8 7 6 4 4 4 4 7 11 12 11 10 9 8 11 12 11 13 17 19 20 19 18 20 23 24 24 25 26 26 28 30 31 32 32 31 28 26 25 26 27 27 27 26 24 24 24 25 24 23 22 20 19 20 20 19 19 19 18 18 18 18 17 16 15 15 14 14 14 14 15 16 16 16 16 17 18 19 19 17 15 13 13 14 15
8 7 5 4 4 4 5 7 11 11 9 8 9 10 11 10 10 12 15 17 18 18 17 19 23 24 24 24 24 24 26 28 29 30 32 32 31 28 24 23 24 25 25 24 22 22 23 24 24 23 22 20 18 17 17 17 18 17 18 18 18 18 18 18 17 17 16 16 15 14 13 13 13 14 15 15 15 16 16 15 14 14 15 15 14
7 6 4 3 3 4 5 8 9 9 7 8 10 11 11 9 9 10 13 15 16 17 17 19 21 23 23 23 23 22 24 26 28 29 30 31 31 29 25 22 22 22 23 22 20 19 19 20 21 21 21 21 20 18 16 15 15 16 16 16 17 18 18 18 18 17 17 16 16 15 14 13 13 13 14 15 15 15 15 15 15 16 16 14 13
4 3 2 3 2 3 5 7 8 7 7 9 10 11 10 8 8 9 11 13 14 15 17 18 20 21 21 22 22 22 23 24 26 27 28 28 29 28 26 22 20 19 20 21 20 19 17 17 17 18 18 19 20 19 17 15 13 13 14 14 15 16 17 18 17 16 16 15 14 13 13 12 11 11 12 13 15 15 15 15 15 14 14 13 13
4 2 2 3 3 3 5 6 6 7 8 8 9 10 9 8 8 8 9 12 13 14 15 17 18 20 20 20 21 21 22 23 24 24 25 26 27 27 26 23 19 17 17 18 19 19 18 17 16 16 16 17 18 18 17 15 13 13 12 12 11 12 13 14 14 14 15 16 15 14 12 11 10 9 10 11 12 12 13 13 13 12 12 12 13
4 2 2 3 3 4 4 4 5 6 7 8 10 10 9 10 9 7 8 13 13 12 13 15 17 18 19 19 20 20 21 22 22 22 22 24 25 25 26 24 21 18 17 16 17 18 19 18 17 15 14 14 14 15 16 15 14 13 12 11 10 9 10 10 10 11 12 13 14 13 12 10 9 9 9 8 8 9 10 10 10 10 10 12 13
4 2 1 1 2 3 3 3 4 5 6 8 10 9 10 12 10 6 8 12 12 11 11 14 15 16 18 19 19 19 20 21 21 20 21 22 23 23 24 23 22 21 20 18 18 18 19 19 18 16 14 12 11 11 12 13 13 13 12 11 10 8 7 8 8 8 8 9 10 10 9 9 8 7 7 7 6 7 7 8 8 9 11 12 12
5 2 1 1 2 2 2 2 3 4 5 8 10 9 10 12 11 8 8 10 10 10 11 12 13 14 17 18 18 19 20 21 20 19 20 21 21 22 22 22 21 20 19 20 20 19 19 18 19 18 15 11 8 9 10 10 11 11 12 12 11 9 6 6 7 7 6 7 8 8 8 8 8 7 6 7 7 7 7 8 8 8 9 11 12
7 3 1 2 2 2 1 1 2 3 4 8 10 9 8 10 11 10 8 8 8 9 11 11 11 12 14 16 17 17 19 20 19 18 19 20 20 20 21 21 20 19 18 19 20 20 20 19 18 17 15 11 9 8 9 9 9 9 10 11 11 9 5 4 6 7 6 5 5 6 8 8 8 8 7 6 5 5 6 7 7 7 8 9 11
7 4 2 1 2 3 3 2 2 3 3 6 9 8 7 7 9 10 9 7 7 9 10 10 10 11 12 14 15 15 17 19 19 18 18 19 19 19 19 20 20 19 18 18 19 20 20 18 16 15 15 14 11 9 8 9 9 9 9 10 10 8 6 3 3 5 6 4 3 5 6 7 7 6 7 7 5 4 4 4 5 6 7 8 10
6 5 4 3 2 2 3 2 2 3 4 4 7 9 8 6 7 10 9 6 7 9 9 8 9 10 11 13 14 14 15 18 19 18 18 17 18 18 19 19 20 19 17 16 18 19 18 17 16 15 14 14 12 11 9 9 9 10 10 9 8 7 5 3 1 1 3 4 4 3 4 5 5 5 5 6 6 4 4 6 6 6 7 8 9
8 8 6 5 3 2 2 3 4 4 5 5 6 8 9 6 5 7 8 7 7 9 8 6 7 9 9 11 12 13 14 16 18 19 18 16 16 17 18 18 19 18 16 15 16 18 18 17 16 15 14 12 11 12 11 10 10 10 11 10 9 7 5 3 1 2 1 2 3 2 2 2 2 2 2 2 2 2 3 5 7 7 7 9 10
9 9 7 6 5 4 3 3 4 5 6 7 7 8 8 6 4 6 8 9 10 11 9 7 8 9 9 9 11 12 12 13 16 18 17 15 15 16 17 18 18 17 14 14 15 16 18 18 18 16 14 12 11 12 12 12 12 12 11 10 10 8 5 3 2 3 4 2 0 0 0 0 1 2 2 2 1 1 2 3 3 4 6 8 10
10 9 8 7 5 5 5 5 5 5 6 8 8 7 6 5 5 6 8 9 11 11 10 9 10 11 11 11 11 11 11 12 14 17 16 15 14 15 16 17 17 15 13 13 14 15 16 18 19 17 14 12 12 12 13 13 14 13 12 11 10 9 7 5 3 4 5 5 5 3 3 3 3 3 4 4 4 3 4 4 4 3 3 6 8
11 9 9 8 6 7 8 7 6 6 8 9 7 5 5 5 6 7 8 8 10 11 11 10 12 13 14 13 12 10 10 10 12 14 15 14 14 14 15 16 16 14 12 13 13 13 14 17 18 17 16 15 14 14 15 15 14 14 14 13 12 10 8 7 5 5 5 7 7 7 7 6 6 7 7 7 7 6 7 7 7 6 5 5 6
Wind_Direction
70 63 61 65 72 73 67 61 52 36 24 9 355 4 20 20 16 5 349 332 307 286 276 268 262 263 267 274 280 282 284 285 284 285 286 286 286 285 285 286 289 289 288 284 280 278 277 276 275 277 277 273 266 261 258 257 258 257 254 252 249 248 248 249 251 252 253 253 254 254 243 233 227 224 223 221 219 218 217 219 219 216 216 220 221
69 57 53 56 61 67 63 51 36 19 6 356 2 21 31 29 26 19 13 10 2 346 320 292 276 270 269 270 272 275 279 280 280 281 282 284 286 285 284 283 284 285 285 284 281 278 277 275 273 274 275 272 269 266 263 261 259 257 255 253 250 248 248 250 251 249 250 251 251 249 241 233 229 226 224 223 220 217 215 216 217 216 218 222 224
68 56 53 54 55 59 53 38 22 8 4 2 12 28 30 23 19 17 14 11 6 1 352 334 311 294 285 280 274 274 276 276 276 276 278 282 285 286 285 284 284 284 284 284 283 280 277 274 272 272 271 269 267 267 266 264 262 258 256 253 251 249 249 250 249 247 248 251 248 243 237 234 233 230 228 227 224 219 216 214 214 214 217 222 227
58 53 54 54 50 43 40 39 34 27 25 22 21 25 24 18 15 14 11 9 7 3 356 348 339 327 316 304 291 285 284 285 285 283 280 280 281 282 284 285 286 285 284 283 281 279 278 276 274 273 270 267 265 266 266 266 263 258 256 254 251 249 248 247 246 245 247 249 248 242 237 235 235 234 231 228 224 221 218 215 214 214 217 222 225
50 49 51 57 57 50 49 50 45 40 36 32 29 24 19 15 12 12 12 9 7 4 359 355 350 343 337 331 322 314 310 310 311 309 303 296 289 285 283 282 283 284 286 285 283 281 279 277 275 274 272 268 265 264 264 264 263 259 256 255 253 249 246 243 243 243 244 246 246 243 236 233 234 234 233 229 223 220 218 217 216 215 216 220 223
45 47 53 64 65 59 57 54 47 40 35 33 30 25 20 14 10 11 11 8 7 6 4 1 358 354 349 343 336 332 333 333 332 331 328 323 315 306 298 290 284 280 279 281 283 283 282 279 276 273 272 269 265 264 264 264 263 261 258 256 254 250 246 243 242 242 242 243 244 242 237 233 231 231 234 233 227 222 218 216 216 216 216 217 219
47 50 55 66 68 62 58 56 49 41 32 29 28 25 22 17 13 10 6 5 9 13 12 10 8 6 1 356 352 347 344 343 340 338 336 334 331 326 320 313 303 291 282 277 275 276 278 279 279 275 273 270 267 264 264 263 262 260 261 260 256 251 249 246 241 240 242 242 241 239 236 233 230 229 233 233 228 223 220 217 215 214 216 216 216
56 58 58 63 67 64 58 53 50 44 35 28 25 25 25 21 17 12 7 7 11 15 18 17 14 13 10 7 6 2 356 352 349 346 341 337 335 332 327 321 316 310 300 289 279 273 271 272 274 276 275 274 272 267 264 264 265 263 261 261 258 253 249 246 241 238 239 239 239 238 236 233 230 229 230 228 223 220 220 219 218 216 216 217 217
62 65 62 61 63 65 61 54 49 46 39 32 28 28 27 24 21 17 12 12 13 13 15 14 11 9 8 7 6 4 3 2 0 355 348 343 339 336 332 326 320 315 309 302 292 282 273 268 267 270 272 273 273 270 266 265 266 263 259 257 256 253 249 246 243 240 239 237 237 237 234 232 230 227 225 226 226 223 220 219 220 221 221 218 215
62 63 61 61 62 61 58 52 45 40 36 31 28 27 24 22 21 20 17 15 14 12 9 6 6 5 4 4 2 2 1 1 0 357 350 346 342 339 337 333 328 322 315 309 303 295 286 275 267 265 266 266 267 268 267 264 262 260 257 255 253 252 251 247 244 243 240 236 235 234 231 230 230 228 226 228 230 228 223 220 218 220 223 219 213
59 62 63 64 62 56 49 45 41 39 36 32 29 26 24 21 19 20 21 20 18 16 12 8 7 6 4 3 1 0 360 358 355 352 349 346 343 342 342 339 336 331 326 321 315 309 303 292 276 265 261 262 263 265 266 265 262 258 257 256 253 251 252 250 247 245 241 238 236 234 231 229 230 230 228 228 229 227 224 222 218 217 219 216 212
64 70 72 69 64 57 51 49 48 45 41 36 31 29 27 24 21 20 22 22 20 18 17 15 13 9 5 3 1 360 358 355 352 350 348 346 343 342 343 343 341 338 335 332 327 322 318 310 295 274 262 260 262 264 265 266 264 260 257 257 253 250 250 251 249 247 246 244 240 237 235 232 231 231 229 227 228 226 225 224 221 218 218 216 213
69 72 73 70 65 59 56 54 54 52 48 45 41 38 34 30 25 22 23 25 24 21 19 17 14 11 8 5 3 0 358 355 352 350 348 347 345 342 343 344 345 343 340 337 333 327 321 317 309 291 273 263 260 261 263 264 265 262 258 255 252 248 248 250 251 249 249 249 246 243 240 236 233 233 233 230 228 225 223 223 222 220 221 220 217
71 72 73 70 64 60 58 56 56 55 53 51 49 47 44 41 37 33 32 31 29 25 22 19 16 14 12 9 6 4 1 358 355 352 351 350 347 344 343 346 349 349 347 345 341 335 326 319 311 300 286 273 262 258 259 262 263 263 260 256 252 247 245 247 248 247 246 248 249 247 246 243 240 239 238 233 229 227 226 226 225 222 222 223 221
72 73 72 68 64 60 59 57 55 54 53 52 51 51 49 48 47 44 42 39 35 31 27 24 21 19 17 14 10 7 4 1 358 356 355 354 352 349 347 347 351 354 353 350 347 342 336 328 319 305 291 279 269 260 256 258 261 261 261 259 255 250 247 246 246 245 244 244 246 249 249 248 245 241 239 236 233 232 233 234 230 224 220 219 219
72 72 70 67 63 60 58 56 54 54 53 53 53 52 52 52 51 49 48 45 41 38 35 31 28 25 22 19 15 11 7 3 360 358 357 356 356 355 354 351 352 357 359 354 350 347 342 335 329 318 297 280 271 262 255 254 257 259 260 259 256 253 250 248 247 248 247 245 246 249 248 244 240 239 239 238 235 231 231 232 227 220 216 214 213
70 68 67 65 62 60 58 56 54 53 53 54 54 54 55 54 52 50 47 45 42 39 36 34 30 28 26 24 22 19 15 11 6 2 359 358 358 359 360 357 353 356 1 359 353 351 348 339 335 334 322 293 271 260 253 249 250 253 256 258 258 255 253 251 249 248 248 246 246 247 244 238 236 237 236 236 236 232 228 226 223 218 215 212 210
68 66 62 60 59 58 56 55 54 52 52 54 55 55 55 54 52 49 46 43 40 36 33 30 28 27 26 25 25 23 20 18 13 9 5 1 0 1 3 3 359 356 0 2 359 355 351 346 344 348 346 326 282 259 250 245 245 247 251 256 258 256 254 252 248 246 245 244 243 243 240 235 232 232 230 230 232 231 229 227 224 219 215 213 211
65 63 60 57 55 54 53 53 52 51 50 52 53 53 54 54 51 49 46 43 39 35 32 29 26 25 25 24 23 21 20 19 15 12 10 5 3 3 3 6 7 4 3 4 3 360 355 354 355 354 352 348 317 267 246 240 243 246 248 254 259 259 256 253 251 248 243 239 236 235 232 228 225 226 225 224 225 226 228 228 225 220 216 214 212
64 63 61 58 55 53 52 51 50 49 48 48 49 50 51 50 48 46 44 40 37 34 33 30 28 26 24 22 21 19 18 18 16 13 12 8 6 5 5 7 9 8 8 6 4 3 359 358 2 359 354 357 350 303 247 233 238 245 249 255 262 262 258 253 252 249 242 234 229 226 225 223 222 222 222 220 219 219 221 223 224 224 221 215 211
67 67 66 62 58 56 55 52 50 49 47 46 46 46 47 46 45 43 39 35 33 31 30 29 28 27 25 22 21 19 17 16 15 15 14 12 10 7 6 8 8 7 9 7 5 5 2 358 2 5 359 357 360 349 274 236 235 243 250 254 258 262 260 253 246 240 233 226 221 219 218 218 218 217 216 216 216 216 217 217 221 226 225 219 212
71 71 69 65 61 59 58 55 53 51 48 45 44 45 44 43 42 40 36 32 29 28 27 26 25 25 24 23 21 19 17 15 15 16 16 16 15 12 8 7 6 7 9 8 6 5 4 359 359 6 8 5 12 19 11 294 245 240 242 245 247 248 244 236 228 221 216 215 214 212 211 211 210 208 208 211 212 215 218 215 214 218 220 219 217
74 71 70 67 63 59 57 56 54 51 48 46 44 44 42 40 39 38 34 30 28 26 24 23 22 22 23 22 21 19 18 16 15 17 18 18 18 18 15 10 6 6 8 8 5 3 3 0 357 360 9 20 28 30 27 22 5 231 226 232 236 227 213 205 200 196 195 196 198 198 199 201 203 202 204 206 206 207 209 205 204 209 211 214 218
73 70 69 67 62 57 56 55 52 49 47 45 44 43 40 39 38 36 33 30 27 24 22 21 21 22 22 21 20 18 17 17 16 16 19 19 18 18 19 18 14 10 9 7 4 3 2 359 355 353 1 16 28 32 30 31 35 43 78 124 156 178 184 185 186 184 182 178 177 178 177 181 188 189 191 197 198 198 200 197 197 204 210 212 213
71 69 67 64 60 56 55 53 50 48 46 42 41 41 40 38 37 34 31 29 26 24 22 20 21 23 23 21 19 16 15 15 14 13 16 18 18 16 16 19 20 19 16 12 7 4 2 358 352 351 356 4 21 52 67 61 51 46 52 84 118 141 163 177 181 185 188 184 175 165 155 154 162 165 168 182 188 190 196 197 193 196 202 203 202
75 68 65 63 59 55 54 53 49 47 46 42 39 39 39 37 35 31 29 27 25 23 21 20 20 22 23 22 19 16 15 14 12 11 11 13 15 14 13 16 19 19 18 16 9 2 3 6 5 3 4 5 14 44 70 80 85 80 68 69 83 97 116 135 145 150 149 146 146 142 137 139 149 158 162 171 175 174 182 192 192 189 189 190 188
79 73 71 70 66 59 57 54 49 47 47 44 40 38 38 36 33 30 27 25 24 22 21 20 20 20 20 20 18 16 15 14 11 8 7 9 11 11 11 14 17 17 17 17 14 6 3 11 21 27 32 32 26 34 61 78 84 84 83 81 80 84 96 108 116 123 124 124 128 131 130 132 137 145 152 158 160 159 161 172 179 178 179 184 181
79 76 75 73 70 66 62 55 48 45 46 43 41 40 37 32 30 29 28 26 24 22 21 20 20 20 18 17 16 15 14 13 10 6 5 6 7 9 11 14 16 17 18 18 19 17 12 14 27 36 43 49 52 57 67 74 78 80 82 83 87 94 104 113 119 122 124 129 135 134 130 128 129 133 140 144 145 150 157 165 166 165 168 174 169
82 76 69 63 62 62 58 52 46 43 41 40 42 42 35 28 26 28 29 29 26 23 21 20 21 22 21 17 15 14 13 12 8 3 3 5 7 8 12 16 18 20 21 20 23 27 29 30 34 37 39 44 52 60 67 73 78 82 84 87 89 92 95 100 105 111 117 122 125 124 123 122 121 123 127 129 129 134 143 148 149 151 156 158 150
84 76 65 58 55 53 49 44 41 40 39 40 41 38 31 27 25 27 31 33 29 24 21 20 20 22 23 20 17 15 14 12 6 2 3 7 9 9 13 18 21 22 23 24 29 34 37 37 38 38 39 41 44 49 55 63 70 75 78 83 86 87 88 88 90 98 106 110 110 111 111 112 113 115 118 118 119 121 123 125 129 134 139 140 136
91 83 71 61 55 50 46 41 35 33 35 37 36 33 30 28 26 27 33 35 31 25 22 21 20 21 22 21 19 17 17 14 8 4 7 10 11 12 15 20 25 26 25 28 34 38 39 40 40 41 42 44 45 46 48 53 58 62 66 71 74 78 82 84 86 93 100 102 103 105 106 108 112 115 116 117 118 119 117 117 119 121 123 125 127
104 92 81 67 54 50 51 47 35 28 30 32 31 30 29 27 25 28 33 35 31 26 23 22 21 20 21 20 18 18 18 17 12 10 13 15 14 14 18 22 28 31 30 32 37 39 39 40 41 41 42 44 46 47 48 51 54 56 59 63 65 65 67 70 78 88 96 99 101 102 106 113 117 118 119 120 120 119 119 121 123 124 125 125 125
122 104 89 73 55 51 56 53 35 25 26 29 30 28 26 24 24 27 31 32 29 26 23 21 20 20 20 20 18 18 18 18 17 16 18 18 17 17 21 25 30 33 33 35 37 38 39 40 41 42 43 45 46 46 47 47 48 49 52 57 64 70 72 72 77 84 88 89 90 94 103 112 116 115 114 115 115 115 115 117 120 125 129 131 130
126 125 95 71 56 53 55 50 33 23 22 30 35 31 23 20 22 25 29 30 29 26 24 20 17 18 20 20 18 18 18 19 20 20 20 21 21 20 23 28 33 36 37 37 37 38 38 39 41 42 43 44 45 46 47 47 47 47 49 52 59 70 79 84 89 92 92 90 89 94 106 120 129 127 119 121 128 127 123 121 120 119 122 128 132
108 130 106 72 60 56 51 43 31 21 19 31 40 34 23 20 20 23 28 30 28 26 25 21 16 16 19 19 18 17 18 20 22 22 22 24 23 22 26 30 32 34 37 37 38 40 40 40 40 40 41 43 44 46 47 48 48 49 49 51 54 60 69 77 83 89 94 96 96 99 106 119 136 144 140 140 144 138 133 133 131 122 119 125 131
96 123 113 79 59 51 43 34 29 28 33 44 45 29 18 20 21 22 27 29 27 24 24 22 17 15 17 17 17 16 17 19 21 23 24 25 25 26 30 33 33 33 34 36 38 42 44 43 42 40 40 41 43 45 47 49 50 50 50 52 54 55 57 62 67 74 83 89 92 95 98 102 109 118 122 123 124 124 127 132 130 122 119 125 131
92 110 101 77 52 44 44 36 33 38 48 56 50 29 17 19 21 21 24 27 26 24 24 22 18 17 16 16 15 15 15 16 19 22 24 25 27 30 34 35 35 35 35 36 40 45 47 46 43 41 40 41 43 45 46 48 50 52 52 53 55 56 55 55 54 56 64 71 76 80 84 86 89 95 101 105 110 117 124 127 126 125 127 128 128
97 105 92 67 43 42 52 45 40 44 52 51 40 24 15 17 19 19 22 25 25 26 27 24 19 18 18 16 15 13 12 13 16 20 23 24 26 29 33 35 35 37 37 38 41 47 49 47 43 40 39 41 43 44 45 45 48 51 53 54 56 58 58 58 58 58 60 64 67 71 76 82 88 93 99 104 112 123 131 135 134 133 131 128 125
103 107 85 54 42 47 48 46 46 47 43 30 18 9 7 10 10 11 18 23 24 27 30 25 20 19 18 16 15 12 9 11 15 18 20 22 24 26 30 34 35 36 38 38 38 40 44 44 41 38 38 38 39 41 42 42 44 48 52 56 60 63 64 64 64 63 62 63 67 71 74 78 85 93 99 103 108 117 129 138 140 137 133 129 124
125 116 55 41 54 52 44 48 49 36 20 12 8 3 2 3 358 2 16 23 25 28 28 24 19 18 17 16 16 14 8 9 14 16 17 20 22 24 27 31 32 33 37 39 36 33 33 32 30 31 32 32 32 35 39 42 44 46 49 54 60 66 71 71 68 66 64 62 63 67 70 72 75 82 90 98 105 114 125 133 136 134 131 128 124
146 114 49 55 76 64 49 46 37 19 13 13 8 3 8 13 7 3 16 25 26 27 27 24 20 18 15 15 18 17 12 10 12 13 15 18 21 22 25 28 28 27 32 37 36 33 31 29 24 21 24 27 27 28 33 39 44 46 47 50 56 64 70 72 72 71 69 67 64 62 63 65 67 71 79 90 102 111 121 130 134 134 131 127 124
148 120 79 77 84 77 61 46 30 23 25 23 13 8 17 24 18 8 15 23 26 27 26 24 22 18 15 14 17 18 14 13 13 12 12 15 18 21 23 27 28 29 32 37 36 33 32 32 28 20 17 19 21 22 26 32 38 41 42 43 48 57 63 68 72 75 76 76 74 67 63 62 64 68 73 81 94 105 111 117 125 134 139 137 132
167 162 134 106 96 86 72 46 24 24 26 19 13 10 14 19 21 20 18 19 22 26 26 24 23 21 18 17 17 16 14 14 15 13 10 12 15 18 21 25 29 32 34 35 33 30 28 27 26 23 19 15 9 8 13 21 27 32 35 35 37 44 53 59 66 70 74 75 73 68 65 63 61 65 70 71 78 95 104 105 111 127 143 150 146
176 174 207 210 172 118 85 41 12 12 19 13 6 1 5 16 28 37 26 16 17 23 23 21 21 21 19 18 17 15 12 13 16 14 11 9 11 14 18 21 24 28 30 29 26 25 21 17 16 17 17 15 7 0 2 10 18 24 27 25 23 26 40 55 58 59 62 67 69 69 69 64 58 59 65 65 67 80 94 103 109 122 142 157 161
184 191 274 250 216 218 235 350 360 356 1 4 1 356 1 15 27 31 24 16 16 16 15 15 17 17 16 16 16 14 12 12 14 14 11 9 8 10 14 17 18 21 25 26 23 21 18 14 12 11 11 13 14 8 6 10 17 20 18 15 14 16 28 47 48 42 42 59 75 73 70 70 68 66 67 73 79 87 95 104 113 123 141 159 168
189 208 253 236 214 235 240 255 341 333 331 353 1 358 355 7 17 15 10 14 21 17 10 10 12 10 9 12 13 13 12 12 13 11 8 8 8 9 11 14 14 16 21 26 25 21 16 14 14 14 14 15 17 17 15 15 14 13 11 11 14 17 18 25 37 37 37 47 62 56 58 72 86 86 79 79 87 98 102 107 120 139 152 158 161
198 206 210 189 176 209 220 232 307 330 335 349 356 354 347 349 5 7 4 9 22 17 9 5 7 5 4 7 9 10 10 10 10 8 6 5 7 7 8 11 13 14 19 27 28 24 20 17 16 17 18 19 20 21 18 12 9 7 6 5 6 6 2 358 360 44 46 51 52 43 50 73 99 112 99 86 83 95 109 110 114 137 158 161 156
212 212 203 185 182 214 232 242 273 315 342 346 341 344 343 335 344 359 356 349 355 358 355 357 5 3 358 360 3 3 3 5 6 5 3 3 4 4 5 8 10 11 17 25 26 23 22 19 16 15 18 20 23 26 23 15 9 8 6 5 4 357 344 325 266 218 149 76 68 67 71 85 114 147 143 101 64 78 121 122 114 118 140 156 158
222 229 216 195 195 221 246 260 272 302 338 345 333 332 336 330 327 343 345 343 349 353 350 345 347 347 344 346 351 353 355 358 360 0 0 0 360 359 1 4 5 5 9 16 19 18 18 17 15 14 15 18 23 29 28 23 17 12 8 6 7 3 351 324 271 234 222 218 211 83 85 161 187 203 220 236 250 219 189 178 151 127 134 150 160
235 242 224 208 215 243 257 266 270 284 313 327 325 321 322 320 319 325 329 335 346 354 353 346 343 340 333 328 331 337 344 350 354 356 358 359 358 357 358 0 0 358 360 6 9 9 9 11 14 16 17 17 20 24 25 22 18 15 12 11 9 7 3 351 314 265 249 247 250 259 276 280 275 276 279 273 257 233 215 213 217 204 167 156 161
230 229 216 215 235 259 265 264 260 268 289 305 309 301 291 294 306 316 320 325 336 347 352 350 346 343 336 326 321 327 337 343 348 352 354 355 357 357 357 358 358 356 352 355 1 2 1 5 11 18 22 22 22 22 23 21 19 16 15 14 12 9 4 356 338 311 289 277 269 268 273 281 288 293 295 289 276 254 231 223 227 229 217 199 187